STARLINK-11437, 62884

Orbit data source: Space-Track

STARLINK-11437, 62884 is a payload satellite owned by SpaceX/Seattle (US) in LEO that was launched on Tue, 04 Feb 2025 UTC via an FALCON 9 launch vehicle from the Air Force Eastern Test Range (AFETR). Payload-class satellites include a variety of spacecraft equipped with specific instruments for various scientific and technological missions. These include communications satellites like Starlink; space stations such as the ISS; scientific satellites like the Hubble; Earth observation satellites from companies like Planet Labs, Umbra, and HawkEye 360; GPS; miniature CubeSats for education and research; and military/defense satellites.

Loading next visibility...
Identifier
62884, 2025-024F
Orbit
LEO
Country
Flag of USUS
Related business
Manufacturer
SpaceX/Seattle
Mission
Operational Commercial Communications
Bus & Motor
STARLINK V2MD, Unknown motor
Mass
960 kg wet, ~910 kg dry
Launch date (UTC)
2025-02-04 (8 months ago)
Launch vehicle
FALCON 9
Launch site
Air Force Eastern Test Range (AFETR)
Object type
Payload
Rocket body
Debris
Shape & HBR
Box + 2 Pan, 18.1 m
Radar Cross Section
36.964 m², Large (>1 m²)

Expand to show TLE details & history
Last TLE update: 1 day ago

TLE from 1 day ago
0 STARLINK-11437
1 62884U 25024F   25285.91391156  .00371912  00000-0  27611-2 0  9990
2 62884  42.9995 352.3500 0000962 319.7075  40.3722 15.70951984 40220
Epoch: 2025-10-12T21:56Z
TLE epoch observation values (Epoch: 2025-10-12T21:56:01.958Z)
Latitude
0.00002°
Longitude
1.61764°
Altitude
355.453 km
Speed
7.698 km/s
True Right ascension
23h 29m 24s
True Declination
0° 00' 00"
Sunlit
Object was in full shadow at epoch
Visualization orbit readout
Latitude
Unknown
Longitude
Unknown
Altitude
Unknown
Speed
Unknown
Apparent Right ascension
Unknown
Apparent Declination
Unknown
Sunlit
N/A
Visualization observer readout
Local Sidereal Time
00:31:25
Azimuth
Unknown
Elevation
Unknown
Doppler factor
Unknown
Orbital elements
Apogee altitude
358.805 km
Perigee altitude
357.509 km
Semi-major axis
6,736.294 km
Eccentricity
0.0001
Inclination
42.9995°
RAAN
352.35°
Arg. of periapsis
319.7075°
True anomaly
40.37934°
Mean anomaly
40.3722°
Eccentric anomaly
40.37577°
Mean motion
3.92565 °/min
Orbital period
91.7 mins
BSTAR
0.0027611
Loading maneuver chart data...
Computing Atmospheric mass density...
Loading historical data...
Loading historical data...
Loading historical data...
Loading historical data...
Loading historical data...
Loading historical data...
Loading historical data...

Documentation

Showing up to 5 results
|